Weather in Ershovo

Russia / Vologda Oblast     59°21′34″N   38°24′23″E
temp.,
°C
wind,
m/s
gust,
m/s
humid.,
%
clouds,
%
prec.,
mm/h
press.,
hPa
HPBL,
m
19 june, sat
sat1900:00+17sw387599 0.0 1021116
03:00+15sw38835 0.0 1021134
06:00+18wsw410795 0.0 1021287
09:00+23wsw58592 0.0 1021611
12:00+27w58445 0.0 10201794
15:00+29w58435 0.0 10191924
18:00+28w36537 0.0 1019372
21:00+22sw23685 0.0 101923
20 june, sun
sun2000:00+19w33665 0.0 102036
03:00+16sw22785 0.0 102124
06:00+19wsw24775 0.0 1021115
09:00+25wsw35590 0.0 1020506
12:00+28sw46450 0.0 10201776
15:00+29ssw564763 0.0 10181603
18:00+27s47599 0.0 1018355
21:00+21s38730 0.0 1018133
21 june, mon
mon2100:00+19sw33740 0.0 101937
03:00+17sw22801 0.0 101918
06:00+20wsw23750 0.0 102099
09:00+26sw23590 0.0 1020459
12:00+29w24450 0.0 10191861
15:00+31sw444242 0.0 10191888
18:00+27sw486241 0.0 1019430
21:00+24sw346239 0.0 101969
22 june, tue
tue2200:00+20sw228262 0.1 102012
03:00+19ssw338986 0.4 102046
06:00+21ssw248334 0.1 1021123
09:00+25ssw346090 0.1 1021451
12:00+29ssw334767 0.0 10201251
15:00+29ssw444413 0.0 10201472
18:00+28ssw36559 0.0 1019436
21:00+22s36725 0.0 101990
23 june, wed
wed2300:00+20s22793 0.0 101926
03:00+19ssw339135 0.0 102048
06:00+22ssw24831 0.0 1020136
09:00+27ssw245937 0.0 1020462
12:00+31sw45468 0.0 10191402
15:00+32ssw45429 0.0 10191739
18:00+30ssw475345 0.0 1018407
21:00+24ssw48673 0.0 1018127